This is the latest recevied weather packets stored in our database for station/object W5ZYX. If no packets are shown the sender has not sent any weather packets the latest 1 day(s).
| Time | Temp. | Humidity | Pressure | Rain* | Wind** | Luminosity | Snow |
|---|---|---|---|---|---|---|---|
| 1778005236 | 27.22° C | 78% | 1008.8 hPa | 0 mm | 0.89 m/s, 262° | - | - |
| 1778004947 | 27.22° C | 79% | 1008.9 hPa | 0 mm | 2.24 m/s, 205° | - | - |
| 1778004637 | 27.22° C | 81% | 1008.9 hPa | 0 mm | 1.34 m/s, 206° | - | - |
| 1778004341 | 26.67° C | 79% | 1008.8 hPa | 0 mm | 1.79 m/s, 211° | - | - |
| 1778004056 | 26.67° C | 80% | 1008.8 hPa | 0 mm | 1.34 m/s, 218° | - | - |
| 1778003740 | 26.67° C | 81% | 1008.8 hPa | 0 mm | 2.24 m/s, 221° | - | - |
| 1778003439 | 26.67° C | 80% | 1008.9 hPa | 0 mm | 1.34 m/s, 218° | - | - |
| 1778003148 | 26.67° C | 81% | 1009 hPa | 0 mm | 1.34 m/s, 172° | - | - |
| 1778002837 | 26.67° C | 81% | 1009 hPa | 0 mm | 1.79 m/s, 178° | - | - |
| 1778002537 | 26.11° C | 81% | 1009 hPa | 0 mm | 2.24 m/s, 209° | - | - |
| 1778002249 | 26.11° C | 81% | 1009 hPa | 0 mm | 1.79 m/s, 209° | - | - |
| 1778001936 | 26.11° C | 81% | 1009 hPa | 0 mm | 2.68 m/s, 180° | - | - |
| 1778001636 | 26.11° C | 82% | 1009 hPa | 0 mm | 1.79 m/s, 169° | - | - |
| 1778001356 | 26.11° C | 82% | 1009.1 hPa | 0 mm | 2.24 m/s, 186° | - | - |
| 1778001039 | 26.11° C | 83% | 1009.2 hPa | 0 mm | 1.79 m/s, 216° | - | - |
| 1778000737 | 25.56° C | 83% | 1009.2 hPa | 0 mm | 1.34 m/s, 211° | - | - |
| 1778000451 | 25.56° C | 83% | 1009.3 hPa | 0 mm | 1.79 m/s, 199° | - | - |
| 1778000141 | 25.56° C | 83% | 1009.3 hPa | 0 mm | 1.34 m/s, 177° | - | - |
| 1777999839 | 25.56° C | 83% | 1009.3 hPa | 0 mm | 1.34 m/s, 196° | - | - |
| 1777999549 | 25.56° C | 83% | 1009.3 hPa | 0 mm | 1.34 m/s, 192° | - | - |
| 1777999237 | 25.56° C | 84% | 1009.3 hPa | 0 mm | 1.79 m/s, 179° | - | - |
| 1777998937 | 25° C | 84% | 1009.2 hPa | 0 mm | 1.34 m/s, 167° | - | - |
| 1777998649 | 25° C | 84% | 1009.2 hPa | 0 mm | 2.68 m/s, 207° | - | - |
| 1777998337 | 25° C | 84% | 1009.3 hPa | 0 mm | 1.79 m/s, 206° | - | - |
| 1777998036 | 25° C | 84% | 1009.3 hPa | 0 mm | 1.79 m/s, 177° | - | - |
* Rain latest hour (hover to see other rain measurements)
** Current wind speed in m/s (hover to see current wind gust speed)